This is the latest recevied weather packets stored in our database for station/object K6POO-1. If no packets are shown the sender has not sent any weather packets the latest 10 day(s).
| Time | Temp. | Humidity | Pressure | Rain* | Wind** | Luminosity | Snow |
|---|---|---|---|---|---|---|---|
| 1787949220 | 16.11° C | 85% | 1017.1 hPa | 0 mm | - | 504 W/m² | - |
| 1787948915 | 16.11° C | 86% | 1017.2 hPa | 0 mm | - | 356 W/m² | - |
| 1787948611 | 16.11° C | 86% | 1017 hPa | 0 mm | - | 292 W/m² | - |
| 1787948306 | 16.11° C | 86% | 1017.2 hPa | 0 mm | - | 270 W/m² | - |
| 1787948005 | 16.11° C | 86% | 1017 hPa | 0 mm | - | 258 W/m² | - |
| 1787947704 | 16.11° C | 85% | 1017.1 hPa | 0 mm | - | 247 W/m² | - |
| 1787947399 | 16.11° C | 85% | 1017.2 hPa | 0 mm | - | 235 W/m² | - |
| 1787947099 | 16.11° C | 85% | 1017.3 hPa | 0 mm | - | 230 W/m² | - |
| 1787946797 | 16.11° C | 85% | 1017.1 hPa | 0 mm | - | 232 W/m² | - |
| 1787946495 | 16.11° C | 84% | 1017.4 hPa | 0 mm | - | 227 W/m² | - |
| 1787946192 | 16.67° C | 83% | 1017.3 hPa | 0 mm | - | 221 W/m² | - |
| 1787945891 | 16.67° C | 83% | 1017.4 hPa | 0 mm | - | 216 W/m² | - |
| 1787945586 | 16.67° C | 84% | 1017.3 hPa | 0 mm | - | 205 W/m² | - |
| 1787945286 | 16.67° C | 83% | 1017.2 hPa | 0 mm | - | 200 W/m² | - |
| 1787944988 | 16.11° C | 83% | 1017.2 hPa | 0 mm | - | 195 W/m² | - |
| 1787944678 | 16.67° C | 82% | 1017.3 hPa | 0 mm | - | 190 W/m² | - |
| 1787944375 | 16.67° C | 80% | 1017.1 hPa | 0 mm | - | 188 W/m² | - |
| 1787944069 | 17.78° C | 80% | 1017.1 hPa | 0 mm | - | 186 W/m² | - |
| 1787943764 | 17.78° C | 79% | 1017.1 hPa | 0 mm | - | 177 W/m² | - |
| 1787943460 | 17.78° C | 79% | 1017.2 hPa | 0 mm | - | 171 W/m² | - |
| 1787943156 | 17.78° C | 79% | 1016.9 hPa | 0 mm | - | 167 W/m² | - |
| 1787942850 | 17.22° C | 79% | 1016.8 hPa | 0 mm | - | 176 W/m² | - |
| 1787942546 | 17.22° C | 79% | 1016.7 hPa | 0 mm | - | 163 W/m² | - |
| 1787942245 | 17.22° C | 81% | 1016.7 hPa | 0 mm | - | 159 W/m² | - |
| 1787941940 | 17.78° C | 80% | 1016.7 hPa | 0 mm | - | 164 W/m² | - |
* Rain latest hour (hover to see other rain measurements)
** Current wind speed in m/s (hover to see current wind gust speed)